Location: Newark
(45.5000°N, 11.4167°E)
Time: 22:36:20
(UTC+00:00)

Transit 2A Rocket - Pass Details

Date: 26 August 2019
Orbit: 592 x 911 km, 66.7° (Epoch: 19 September)

Event Time Altitude Azimuth Distance (km) Brightness Sun altitude
Rises 16:46:56 0° 189° (S) 3,456 8.5 12.5°
Reaches altitude 10° 16:49:36 10° 182° (S) 2,486 7.7 12.0°
Maximum altitude 16:54:56 40° 115° (ESE) 1,179 5.7 11.1°
Drops below altitude 10° 16:59:53 10° 46° (NE) 2,313 7.1 10.2°
Sets 17:02:18 0° 40° (NE) 3,190 7.9 9.8°
